Regional Weather Roundup
Issued by NWS Mobile, AL

Home | Current Version | Previous Version | Text Only | Print | Product List | Glossary On
Versions: 1 2 3 4 5 6 7 8 9 10 11 12 13 14 15 16 17 18 19 20 21 22 23 24 25 26 27 28 29 30 31 32 33 34 35 36 37 38 39 40 41 42 43 44 45 46 47 48 49 50
000
ASUS44 KMOB 230910
RWRMOB
REGIONAL WEATHER ROUNDUP
NATIONAL WEATHER SERVICE MOBILE AL
400 AM CDT SAT AUG 23 2014

NOTE: "FAIR" INDICATES FEW OR NO CLOUDS BELOW 12,000 FEET WITH NO
      SIGNIFICANT WEATHER AND/OR OBSTRUCTIONS TO VISIBILITY.

  * THESE STATIONS ARE PART OF THE UNIVERSITY OF SOUTH ALABAMA
    MESONET AND ARE NOT UNDER NWS OR FAA QUALITY CONTROL.

ALZ061>064-231000-
COASTAL ALABAMA

CITY           SKY/WX    TMP DP  RH WIND       PRES   REMARKS
MOBILE REG APT CLEAR     77  76  96 W5        30.00S
BROOKLEY FIELD CLEAR     80  76  87 W5        30.00S
USA CAMPUS*      N/A     79  75  89 CALM      29.99R
DOG RIVER*       N/A     79  77  94 CALM      29.99S


CITY           SKY/WX    TMP DP  RH WIND       PRES   REMARKS
MOUNT VERNON*  NOT AVBL
SARALAND*      NOT AVBL
BAY MINETTE*   NOT AVBL
LOXLEY*          N/A     77  75  94 W2        29.99S
ROBERTSDALE*     N/A    N/A N/A N/A CALM      29.99S
FAIRHOPE*        N/A     82  77  83 W5        29.98S
ELBERTA*         N/A     79  66  65 CALM      29.98S
FOLEY*         NOT AVBL
GRAND BAY*       N/A     75  75 100 CALM      29.97S
DAUPHIN ISLND* NOT AVBL
BON SCOUR NWR* NOT AVBL
GULF SHORES    CLEAR     76  75  98 CALM      29.98S FOG

$$

ALZ051>060-231000-
INTERIOR SOUTHWEST AND SOUTH CENTRAL ALABAMA

CITY           SKY/WX    TMP DP  RH WIND       PRES   REMARKS
GREENVILLE     PTCLDY    76  72  87 CALM      29.99S
EVERGREEN      CLEAR     75  73  93 CALM      29.99S
CASTLEBERRY*   NOT AVBL
ATMORE*          N/A     77  75  94 CALM      30.00F
DIXIE*         NOT AVBL
ANDALUSIA/OPP  CLEAR     80  74  81 CALM      29.98F
ANDALUSIA*     NOT AVBL
FLORALA APT    CLEAR     77  73  87 CALM      30.00S
FLORALA*         N/A     73  72  94 CALM      29.96F

$$

FLZ001>006-231000-
WESTERN FLORIDA PANHANDLE

CITY           SKY/WX    TMP DP  RH WIND       PRES   REMARKS
PENSACOLA      CLEAR     79  75  87 W5        29.98S
NAS PENSACOLA  CLEAR     76  75  97 CALM      29.98S
MILTON         CLEAR     77  74  90 NW3       29.98F
WHTNG S FIELD  CLEAR     78  75  90 NW3       29.98F


CITY           SKY/WX    TMP DP  RH WIND       PRES   REMARKS
WALNUT HILL*   NOT AVBL
JAY*           NOT AVBL
DUKE FIELD     CLEAR     78  78  99 W3        29.98F
CRESTVIEW      CLEAR     76  74  93 CALM      29.99F
VALPARAISO     NOT AVBL
DESTIN         CLEAR     84  77  79 NW3       29.97F

$$

MSZ076-079-231000-
INTERIOR SOUTHEAST MISSISSIPPI

CITY           SKY/WX    TMP DP  RH WIND       PRES   REMARKS
LEAKESVILLE*     N/A     75  73  94 CALM        N/A
AGRICOLA*      NOT AVBL

$$

MARINE OBSERVATIONS

STATION/POSITION TIME  TEMP    WIND        PRES    WAVE
                       AIR SEA DIR/SP/G            HT/PER
                 (UTC) (F)     (DEG/KT/KT) (MB)    (FT/S)
PASCAGOULA       0900   85     280/  4/  7 1015.1R
PETIT BOIS ISLND 0900   87     270/  9/ 11 1015.6R
GRAND BAY        0800   83     300/  3     1016.0S
KATRINA CUT      0800   86     260/  9     1015.6F
CEDAR POINT      0800   87     270/ 10     1015.6S
E DAUPHIN ISLAND 0800   85     250/  5/  8 1015.3F
MIDDLE BAY LIGHT 0800   85     270/  9     1014.6S
USCG MOBILE BAY  0900   83 86  280/  4/  5 1014.3S
STATE DOCKS      0900   82 86              1015.2R
MEAHER PARK      0800   84     270/  2     1014.9S
WEEKS BAY        0800   75                   N/A
FORT MORGAN      0900   86     280/ 10/ 12 1014.8R
12 S ORANGE BCH  0900   86 86  270/ 10/ 12 1015.2F   1/ 2
PENSACOLA BAY    0900   83 88  290/  3/  5 1015.5R
64 S DAUPHIN ISL 0846   86 88  280/  8/ 10 1015.7F
67 S FORT MORGAN 0800   85                 1015.2F

$$

SELECTED LOCATIONS ACROSS THE REGION

CITY           SKY/WX    TMP DP  RH WIND       PRES   REMARKS
NEW ORLEANS    PTCLDY    79  76  90 SW5       30.00S
GULFPORT       CLEAR     79  76  90 CALM      29.98S
PASCAGOULA AP  CLEAR     75  74  96 CALM      29.99R FOG
PASCAGOULA*      N/A     81  77  89 CALM      29.98S
HATTIESBURG    FOG       77  74  90 CALM      30.01S VSB 1/2
LAUREL         CLEAR     73  72  94 CALM      30.03R
MERIDIAN       CLEAR     72  70  93 CALM      30.01S
JACKSON        CLEAR     73  72  96 CALM      30.02R
MONTGOMERY     CLEAR     78  72  81 CALM      29.98S
TROY           CLEAR     75  73  93 CALM      29.99S
KINSTON*       NOT AVBL
GENEVA*          N/A     75  72  88 CALM      29.99F
ASHFORD*       NOT AVBL
DOTHAN         CLEAR     75  73  93 CALM      30.01S
PANAMA CITY    CLEAR     80  76  87 CALM      29.96S

$$



USA.gov is the U.S. government's official web portal to all federal, state and local government web resources and services.